EW9154 Weather Reports


Display with metric or nautical units.
time (UTC)temp
F
wind
direction
speed
MPH
gust
MPH
rain 1hr
in
rain 24hr
in
rain mn
in
humidity
%
barometer
mb
20260831040835 74 179 0.0 7.0 0.00 0.00 0.00 88 1022.5
20260831040308 74 194 0.0 2.0 0.00 0.00 0.00 87 1022.5
20260831035804 74 192 0.0 5.0 0.00 0.00 0.00 87 1022.5
20260831035306 74 194 0.0 5.0 0.00 0.00 0.00 87 1022.4
20260831034803 75 185 0.0 5.0 0.00 0.00 0.00 87 1022.4
20260831034243 75 184 0.0 8.0 0.00 0.00 0.00 87 1022.5
20260831033732 75 179 0.0 8.0 0.00 0.00 0.00 87 1022.5
20260831033231 75 254 1.0 15.0 0.00 0.00 0.00 87 1022.4
20260831032706 75 186 1.0 15.0 0.00 0.00 0.00 87 1022.6
20260831032415 75 177 1.0 12.0 0.00 0.00 0.00 86 1022.5
20260831031850 75 236 1.0 12.0 0.00 0.00 0.00 86 1022.5
20260831031056 75 188 0.0 7.0 0.00 0.00 0.00 86 1022.5
20260831030558 75 221 0.0 7.0 0.00 0.00 0.00 85 1022.5
20260831030031 75 175 0.0 4.0 0.00 0.00 0.00 85 1022.4
20260831025508 75 213 0.0 6.0 0.00 0.00 0.00 84 1022.1
20260831025222 76 211 0.0 8.0 0.00 0.00 0.00 84 1022.1
20260831024425 76 148 0.0 8.0 0.00 0.00 0.00 84 1022.2
20260831023927 76 247 0.0 5.0 0.00 0.00 0.00 83 1022.5
20260831023419 76 211 0.0 5.0 0.00 0.00 0.00 82 1022.4
20260831022859 76 186 0.0 6.0 0.00 0.00 0.00 82 1022.4
20260831022329 76 199 0.0 6.0 0.00 0.00 0.00 82 1022.4
20260831021829 77 186 0.0 8.0 0.00 0.00 0.00 81 1022.4
20260831021301 77 186 1.0 8.0 0.00 0.00 0.00 81 1022.4
20260831020745 77 200 0.0 6.0 0.00 0.00 0.00 80 1022.5
20260831020249 77 206 0.0 8.0 0.00 0.00 0.00 80 1022.6
20260831015720 77 194 1.0 8.0 0.00 0.00 0.00 80 1022.6
20260831015217 78 204 0.0 7.0 0.00 0.00 0.00 79 1022.6
20260831014649 78 144 0.0 2.0 0.00 0.00 0.00 79 1022.6
20260831014403 78 206 0.0 3.0 0.00 0.00 0.00 78 1022.6
20260831013632 78 186 0.0 3.0 0.00 0.00 0.00 78 1022.6
20260831013128 78 252 0.0 9.0 0.00 0.00 0.00 78 1022.6
20260831012600 79 213 0.0 9.0 0.00 0.00 0.00 77 1022.4
20260831012032 79 192 0.0 9.0 0.00 0.00 0.00 76 1022.4
20260831011506 79 214 1.0 9.0 0.00 0.00 0.00 75 1022.2
20260831010936 79 180 1.0 10.0 0.00 0.00 0.00 74 1022.2
20260831010435 80 198 1.0 10.0 0.00 0.00 0.00 73 1022.1
20260831005921 80 132 0.0 11.0 0.00 0.00 0.00 72 1022.1
20260831005353 81 224 0.0 11.0 0.00 0.00 0.00 71 1021.8
20260831004852 81 182 1.0 6.0 0.00 0.00 0.00 69 1021.7
20260831004327 82 161 2.0 16.0 0.00 0.00 0.00 68 1021.8
20260831003825 82 172 1.0 16.0 0.00 0.00 0.00 67 1021.8
20260831003556 83 229 0.0 1.0 0.00 0.00 0.00 68 1022.0
20260831003140 83 183 0.0 0.0 0.00 0.00 0.00 68 1021.8
20260831003032 83 182 0.0 8.0 0.00 0.00 0.00 67 1021.7
20260831001757 83 203 0.0 8.0 0.00 0.00 0.00 67 1021.6
20260831001229 83 188 0.0 0.0 0.00 0.00 0.00 66 1021.5
20260831000728 84 189 0.0 3.0 0.00 0.00 0.00 66 1021.4
20260831000204 84 209 0.0 3.0 0.00 0.00 0.00 65 1021.4
20260830235636 84 192 0.0 8.0 0.00 0.00 0.00 65 1021.3
20260830235408 84 207 0.0 8.0 0.00 0.00 0.00 65 1021.4
20260830234609 85 163 0.0 6.0 0.00 0.00 0.00 66 1021.3
20260830234042 85 186 0.0 4.0 0.00 0.00 0.00 65 1021.3
20260830233539 85 117 0.0 2.0 0.00 0.00 0.00 66 1021.4
20260830233019 85 115 0.0 2.0 0.00 0.00 0.00 65 1021.4
20260830232516 86 136 0.0 7.0 0.00 0.00 0.00 65 1021.4
20260830232013 86 121 0.0 7.0 0.00 0.00 0.00 65 1021.4
20260830231742 86 196 0.0 6.0 0.00 0.00 0.00 64 1021.4
20260830230948 86 190 0.0 6.0 0.00 0.00 0.00 66 1021.4
20260830230943 86 159 0.0 1.0 0.00 0.00 0.00 66 1021.4
20260830225929 86 142 0.0 6.0 0.00 0.00 0.00 65 1021.4
20260830225426 86 105 1.0 11.0 0.00 0.00 0.00 65 1021.4
20260830224901 87 196 1.0 12.0 0.00 0.00 0.00 64 1021.4
20260830224337 87 205 0.0 4.0 0.00 0.00 0.00 63 1021.4
20260830223807 88 125 0.0 2.0 0.00 0.00 0.00 63 1021.3
20260830223307 88 129 0.0 3.0 0.00 0.00 0.00 64 1021.2
20260830223019 88 126 0.0 4.0 0.00 0.00 0.00 65 1021.1
20260830222253 88 148 0.0 4.0 0.00 0.00 0.00 65 1021.1
20260830221726 88 114 0.0 3.0 0.00 0.00 0.00 63 1021.1
20260830221211 89 82 0.0 3.0 0.00 0.00 0.00 63 1021.2
20260830220716 89 148 0.0 3.0 0.00 0.00 0.00 62 1021.2
20260830220147 90 158 0.0 3.0 0.00 0.00 0.00 61 1021.3
20260830215643 90 113 0.0 4.0 0.00 0.00 0.00 61 1021.3
20260830215119 91 112 0.0 4.0 0.00 0.00 0.00 58 1021.2
20260830214551 91 112 0.0 3.0 0.00 0.00 0.00 59 1021.2
20260830214048 90 127 0.0 2.0 0.00 0.00 0.00 61 1021.3
20260830213546 90 109 0.0 2.0 0.00 0.00 0.00 61 1021.3
20260830213043 89 88 0.0 5.0 0.00 0.00 0.00 62 1021.3
20260830212540 88 94 0.0 5.0 0.00 0.00 0.00 65 1021.1
20260830212018 87 106 0.0 9.0 0.00 0.00 0.00 68 1021.2
20260830211515 89 63 0.0 9.0 0.00 0.00 0.00 64 1021.4
20260830211455 89 36 0.0 7.0 0.00 0.00 0.00 66 1021.4
20260830210421 88 94 1.0 7.0 0.00 0.00 0.00 66 1021.4
20260830205920 88 105 1.0 5.0 0.00 0.00 0.00 67 1021.5
20260830205358 87 348 1.0 5.0 0.00 0.00 0.00 67 1021.6
20260830204901 87 130 1.0 9.0 0.00 0.00 0.00 69 1021.6
20260830204333 86 105 1.0 9.0 0.00 0.00 0.00 69 1021.6
20260830203831 86 116 1.0 7.0 0.00 0.00 0.00 69 1021.7
20260830203323 86 90 0.0 7.0 0.00 0.00 0.00 69 1021.8
20260830202822 86 132 1.0 12.0 0.00 0.00 0.00 69 1021.9
20260830202306 86 138 1.0 12.0 0.00 0.00 0.00 68 1022.0
20260830201805 87 82 0.0 5.0 0.00 0.00 0.00 68 1021.9
20260830201302 88 97 0.0 3.0 0.00 0.00 0.00 66 1022.0
20260830201008 88 119 0.0 6.0 0.00 0.00 0.00 66 1022.1
20260830200210 86 117 0.0 7.0 0.00 0.00 0.00 69 1022.1
20260830195914 86 105 0.0 7.0 0.00 0.00 0.00 69 1022.0
20260830195127 85 161 0.0 4.0 0.00 0.00 0.00 70 1022.0
20260830194630 85 55 0.0 1.0 0.00 0.00 0.00 69 1021.9
20260830194125 85 96 0.0 2.0 0.00 0.00 0.00 69 1022.1
20260830193623 86 99 0.0 2.0 0.00 0.00 0.00 68 1022.2
20260830193327 86 78 0.0 5.0 0.00 0.00 0.00 67 1022.1
20260830192553 85 124 0.0 5.0 0.00 0.00 0.00 70 1022.2
20260830192025 85 5 0.0 3.0 0.00 0.00 0.00 69 1022.1
20260830191515 85 97 0.0 3.0 0.00 0.00 0.00 70 1021.9
20260830191014 85 74 0.0 3.0 0.00 0.00 0.00 69 1022.0
20260830190513 86 88 0.0 2.0 0.00 0.00 0.00 68 1022.0
20260830190014 85 94 0.0 2.0 0.00 0.00 0.00 71 1022.1
20260830185455 84 86 0.0 2.0 0.00 0.00 0.00 71 1022.0
20260830184957 84 82 0.0 2.0 0.00 0.00 0.00 71 1022.0
20260830184455 84 69 0.0 1.0 0.00 0.00 0.00 71 1022.1
20260830183951 84 95 0.0 1.0 0.00 0.00 0.00 71 1022.4
20260830183447 83 57 0.0 4.0 0.00 0.00 0.00 72 1022.4
20260830182948 83 121 0.0 4.0 0.00 0.00 0.00 73 1022.6
20260830182425 82 60 0.0 7.0 0.00 0.00 0.00 74 1022.6
20260830182153 81 82 0.0 7.0 0.00 0.00 0.00 76 1022.8
20260830181652 81 94 0.0 5.0 0.00 0.00 0.00 74 1022.9
20260830180920 82 89 0.0 2.0 0.00 0.00 0.00 75 1022.8
20260830180355 81 111 0.0 5.0 0.00 0.00 0.00 75 1022.9
20260830175856 81 105 0.0 5.0 0.00 0.00 0.00 75 1022.7
20260830175334 81 96 0.0 7.0 0.00 0.00 0.00 77 1022.7
20260830174836 80 120 0.0 7.0 0.00 0.00 0.00 78 1022.8
20260830174309 80 94 0.0 2.0 0.00 0.00 0.00 78 1022.9
20260830173807 80 83 0.0 4.0 0.00 0.00 0.00 77 1023.1
20260830173306 80 104 0.0 6.0 0.00 0.00 0.00 79 1023.2
20260830172806 79 93 0.0 5.0 0.00 0.00 0.00 80 1023.3
20260830172242 78 80 0.0 7.0 0.00 0.00 0.00 80 1023.4
20260830171945 78 103 0.0 7.0 0.00 0.00 0.00 80 1023.5
20260830171442 78 104 0.0 3.0 0.00 0.00 0.00 81 1023.6
20260830170715 77 109 0.0 1.0 0.00 0.00 0.00 81 1023.6
20260830170158 77 123 0.0 1.0 0.00 0.00 0.00 81 1023.5
20260830165633 78 96 0.0 1.0 0.00 0.00 0.00 81 1023.4
20260830165116 78 130 0.0 1.0 0.00 0.00 0.00 81 1023.3
20260830164605 77 139 0.0 3.0 0.00 0.00 0.00 81 1023.5
20260830164100 78 120 0.0 3.0 0.00 0.00 0.00 81 1023.5
20260830163600 78 101 0.0 3.0 0.00 0.00 0.00 81 1023.5
20260830163536 78 102 0.0 3.0 0.00 0.00 0.00 80 1023.4
20260830162806 78 96 0.0 2.0 0.00 0.00 0.00 79 1023.3
20260830162011 78 102 0.0 3.0 0.00 0.00 0.00 80 1023.1
20260830161453 78 87 0.0 7.0 0.00 0.00 0.00 79 1022.8
20260830160947 78 84 0.0 7.0 0.00 0.00 0.00 79 1022.8
20260830160720 78 9 0.0 5.0 0.00 0.00 0.00 79 1022.6
20260830155923 78 99 0.0 5.0 0.00 0.00 0.00 78 1022.6
20260830155401 78 57 0.0 4.0 0.00 0.00 0.00 78 1022.6
20260830154853 78 94 0.0 2.0 0.00 0.00 0.00 79 1022.6
20260830154351 78 86 0.0 2.0 0.00 0.00 0.00 80 1022.4
20260830153853 78 24 0.0 2.0 0.00 0.00 0.00 80 1022.5
20260830153330 78 92 0.0 1.0 0.00 0.00 0.00 81 1022.4
20260830152803 77 38 0.0 2.0 0.00 0.00 0.00 83 1022.5
20260830152306 76 82 0.0 5.0 0.00 0.00 0.00 83 1022.6
20260830152030 76 84 0.0 5.0 0.00 0.00 0.00 84 1022.6
20260830151302 76 80 0.0 1.0 0.00 0.00 0.00 85 1022.6
20260830151255 75 80 0.0 1.0 0.00 0.00 0.00 85 1022.6
20260830150229 75 48 0.0 0.0 0.00 0.00 0.00 87 1022.8
20260830145659 74 83 0.0 2.0 0.00 0.00 0.00 88 1022.8
20260830145136 74 103 0.0 6.0 0.00 0.00 0.00 89 1022.7
20260830144840 73 85 0.0 4.0 0.00 0.00 0.00 90 1022.6
20260830144106 72 101 0.0 4.0 0.00 0.00 0.00 91 1022.7
20260830143547 71 81 0.0 4.0 0.00 0.00 0.00 92 1022.6
20260830143322 71 105 0.0 3.0 0.00 0.00 0.00 93 1022.5
20260830143047 71 90 0.0 3.0 0.00 0.00 0.00 92 1022.6
20260830142247 71 101 0.0 0.0 0.00 0.00 0.00 93 1022.4
20260830141514 71 90 0.0 0.0 0.00 0.00 0.00 93 1022.6
20260830141011 70 90 0.0 0.0 0.00 0.00 0.00 93 1022.8
20260830140502 70 90 0.0 0.0 0.00 0.00 0.00 93 1022.9
20260830135933 70 28 0.0 0.0 0.00 0.00 0.00 94 1022.9
20260830135408 70 69 0.0 0.0 0.00 0.00 0.00 94 1023.1
20260830134842 70 88 0.0 0.0 0.00 0.00 0.00 94 1023.1
20260830134545 70 71 0.0 0.0 0.00 0.00 0.00 94 1023.2
20260830133757 69 81 0.0 2.0 0.00 0.00 0.00 94 1023.0
20260830133256 69 86 0.0 2.0 0.00 0.00 0.00 94 1023.1
20260830132755 69 88 0.0 0.0 0.00 0.00 0.00 95 1023.1
20260830132226 69 88 0.0 0.0 0.00 0.00 0.00 95 1023.1
20260830132200 69 48 0.0 0.0 0.00 0.00 0.00 95 1022.7
20260830131806 69 96 0.0 0.0 0.00 0.00 0.00 95 1022.9
20260830130652 69 69 0.0 0.0 0.00 0.00 0.00 95 1022.7
20260830130142 69 33 0.0 2.0 0.00 0.00 0.00 95 1022.7
20260830125641 69 76 0.0 2.0 0.00 0.00 0.00 95 1022.7
20260830125115 68 39 0.0 3.0 0.00 0.00 0.00 95 1022.7
20260830124546 68 21 0.0 1.0 0.00 0.00 0.00 95 1022.6
20260830124044 68 21 0.0 1.0 0.00 0.00 0.00 95 1022.7
20260830123803 68 16 0.0 0.0 0.00 0.00 0.00 95 1022.6
20260830123031 68 88 0.0 0.0 0.00 0.00 0.00 95 1022.5
20260830122520 68 88 0.0 0.0 0.00 0.00 0.00 95 1022.5
20260830122017 68 88 0.0 0.0 0.00 0.00 0.00 95 1022.6
20260830121723 68 86 0.0 0.0 0.00 0.00 0.00 95 1022.7
20260830120936 68 86 0.0 0.0 0.00 0.00 0.00 95 1022.7
20260830120432 68 87 0.0 0.0 0.00 0.00 0.00 95 1022.4
20260830115922 68 87 0.0 0.0 0.00 0.00 0.00 95 1022.4
20260830115420 68 82 0.0 0.0 0.00 0.00 0.00 94 1022.4
20260830115125 68 86 0.0 0.0 0.00 0.00 0.00 95 1022.5
20260830114329 68 85 0.0 0.0 0.00 0.01 0.00 94 1022.4
20260830113803 68 74 0.0 0.0 0.00 0.01 0.00 94 1022.6
20260830113237 68 30 0.0 0.0 0.00 0.04 0.00 94 1022.5
20260830112939 68 30 0.0 0.0 0.00 0.05 0.00 94 1022.4
20260830112207 68 30 0.0 0.0 0.00 0.06 0.00 94 1022.2
20260830111909 68 29 0.0 0.0 0.00 0.07 0.00 94 1022.4
20260830111752 68 29 0.0 0.0 0.00 0.08 0.00 94 1022.5
20260830110611 68 30 0.0 0.0 0.00 0.09 0.00 94 1022.5
20260830110312 68 46 0.0 0.0 0.00 0.10 0.00 94 1022.6
20260830105532 68 63 0.0 0.0 0.00 0.11 0.00 94 1022.5
20260830105032 68 63 0.0 0.0 0.00 0.12 0.00 93 1022.7
20260830104500 68 63 0.0 0.0 0.00 0.13 0.00 93 1022.7
20260830103956 68 63 0.0 0.0 0.00 0.14 0.00 93 1022.7
20260830103726 68 63 0.0 0.0 0.00 0.15 0.00 93 1022.7
20260830102926 68 82 0.0 0.0 0.00 0.15 0.00 93 1022.6
20260830102407 68 82 0.0 0.0 0.00 0.17 0.00 93 1022.7
20260830101838 68 80 0.0 0.0 0.00 0.18 0.00 93 1022.7
20260830101337 68 78 0.0 0.0 0.00 0.19 0.00 93 1022.9
20260830100810 68 78 0.0 0.0 0.00 0.21 0.00 93 1022.8
20260830100536 68 78 0.0 0.0 0.00 0.23 0.00 93 1022.9
20260830095800 68 78 0.0 0.0 0.00 0.24 0.00 93 1022.8
20260830095240 68 78 0.0 0.0 0.00 0.25 0.00 93 1022.7
20260830094715 68 78 0.0 0.0 0.00 0.26 0.00 92 1022.6
20260830094149 68 74 0.0 0.0 0.00 0.27 0.00 92 1022.5
20260830093856 69 74 0.0 0.0 0.00 0.28 0.00 92 1022.4
20260830093057 69 55 0.0 0.0 0.00 0.29 0.00 92 1022.4
20260830092558 69 55 0.0 0.0 0.00 0.30 0.00 92 1022.4
20260830092056 69 94 0.0 0.0 0.00 0.31 0.00 92 1022.5
20260830091555 69 94 0.0 0.0 0.00 0.32 0.00 92 1022.2
20260830091026 69 76 0.0 0.0 0.00 0.33 0.00 92 1022.4
20260830090524 69 80 0.0 0.0 0.00 0.33 0.00 92 1022.6
20260830090000 69 61 0.0 0.0 0.00 0.34 0.00 91 1022.6
20260830085956 69 64 0.0 0.0 0.00 0.33 0.00 91 1022.5
20260830084934 69 35 0.0 0.0 0.00 0.34 0.00 91 1022.7
20260830084432 69 35 0.0 0.0 0.00 0.34 0.00 91 1022.6
20260830083928 69 33 0.0 0.0 0.00 0.34 0.00 91 1022.7
20260830083426 69 33 0.0 0.0 0.00 0.34 0.00 91 1022.6
20260830082858 69 33 0.0 0.0 0.00 0.34 0.00 90 1022.6
20260830082355 70 33 0.0 0.0 0.00 0.34 0.00 90 1022.7
20260830081844 70 33 0.0 0.0 0.00 0.34 0.00 90 1022.7
20260830081611 70 33 0.0 0.0 0.00 0.34 0.00 90 1022.7
20260830080814 70 34 0.0 0.0 0.00 0.34 0.00 90 1022.7
20260830080251 70 34 0.0 0.0 0.00 0.34 0.00 90 1022.8
20260830075726 70 49 0.0 0.0 0.00 0.34 0.00 90 1022.7
20260830075456 70 53 0.0 0.0 0.00 0.34 0.00 90 1022.6
20260830074722 70 58 0.0 0.0 0.00 0.34 0.00 90 1022.5
20260830074223 70 57 0.0 0.0 0.00 0.34 0.00 90 1022.7
20260830073714 70 57 0.0 0.0 0.00 0.34 0.00 90 1022.8
20260830073417 70 57 0.0 0.0 0.00 0.34 0.00 89 1023.0
20260830072647 70 57 0.0 0.0 0.00 0.34 0.00 89 1022.9
20260830072121 70 59 0.0 0.0 0.00 0.34 0.00 89 1022.9
20260830071616 70 59 0.0 1.0 0.00 0.34 0.00 89 1022.9
20260830071120 70 26 0.0 2.0 0.00 0.34 0.00 89 1023.0
20260830070601 70 58 0.0 0.0 0.00 0.34 0.00 89 1023.0
20260830070051 70 86 0.0 0.0 0.00 0.34 0.00 89 1023.0
20260830065552 70 96 0.0 0.0 0.00 0.34 0.00 89 1023.1
20260830065048 70 96 0.0 0.0 0.00 0.34 0.00 89 1023.2
20260830064551 70 96 0.0 0.0 0.00 0.34 0.00 89 1023.0
20260830064041 70 96 0.0 0.0 0.00 0.34 0.00 89 1023.1
20260830063542 70 96 0.0 0.0 0.00 0.34 0.00 88 1023.0
20260830063021 70 96 0.0 0.0 0.00 0.35 0.00 88 1022.9
20260830062524 70 96 0.0 0.0 0.00 0.35 0.00 88 1023.0
20260830062009 71 97 0.0 0.0 0.00 0.36 0.00 88 1023.2
20260830062004 70 96 0.0 0.0 0.00 0.35 0.00 88 1023.0
20260830060953 71 94 0.0 0.0 0.00 0.36 0.00 88 1023.2
20260830060450 71 71 0.0 0.0 0.00 0.36 0.00 87 1023.3
20260830055949 71 71 0.0 0.0 0.00 0.36 0.00 87 1023.5
20260830055451 71 63 0.0 0.0 0.00 0.36 0.00 87 1023.6
20260830054929 71 57 0.0 0.0 0.00 0.36 0.00 87 1023.6
20260830054427 71 55 0.0 0.0 0.00 0.36 0.00 87 1023.6
20260830053926 71 79 0.0 0.0 0.00 0.36 0.00 86 1023.6
20260830053426 71 111 0.0 0.0 0.00 0.36 0.00 86 1023.6
20260830052924 71 129 0.0 0.0 0.00 0.36 0.00 86 1023.6
20260830052641 71 130 0.0 0.0 0.00 0.36 0.00 86 1023.6
20260830051908 71 132 0.0 0.0 0.00 0.36 0.00 86 1023.6
20260830051343 71 132 0.0 0.0 0.00 0.36 0.00 86 1023.6
20260830050820 71 132 0.0 0.0 0.00 0.36 0.00 85 1023.6
20260830050323 71 132 0.0 0.0 0.00 0.36 0.00 85 1023.6
20260830045805 71 132 0.0 0.0 0.00 0.36 0.36 85 1023.6
20260830045239 72 132 0.0 0.0 0.00 0.36 0.36 85 1023.6
20260830045014 72 132 0.0 0.0 0.00 0.36 0.36 85 1023.6
20260830044230 72 145 0.0 0.0 0.00 0.36 0.36 84 1023.8
20260830043937 72 153 0.0 0.0 0.00 0.36 0.36 84 1023.8
20260830043436 72 133 0.0 0.0 0.00 0.36 0.36 84 1023.8
20260830042910 72 141 0.0 0.0 0.00 0.36 0.36 84 1023.8
20260830042136 72 141 0.0 0.0 0.00 0.36 0.36 83 1023.8
20260830041636 73 148 0.0 0.0 0.00 0.36 0.36 83 1024.0
20260830041128 73 148 0.0 0.0 0.00 0.36 0.36 83 1024.0